Tracking 31027 objects as of 19-Jul-2025
HD Live streaming from Space Station
objects crossing your sky now

STARLINK-30379

Track STARLINK-30379 now!
10-day predictions
STARLINK-30379 is classified as:


NORAD ID: 57811
Int'l Code: 2023-138D
Perigee: 565.7 km
Apogee: 566.8 km
Inclination: 43.0 °
Period: 95.8 minutes
Semi major axis: 6937 km
RCS: Unknown
Launch date: September 9, 2023
Source: United States (US)
Launch site: AIR FORCE EASTERN TEST RANGE (AFETR)
Your satellite tracking list
STARLINK-1749
Track 1 satellite(s)




NASA's NSSDC Master Catalog

Two Line Element Set (TLE):
1 57811U 23138D   25199.62554593  .00000458  00000-0  48932-4 0  9991
2 57811  43.0039  68.1774 0000814 244.9883 115.0875 15.02534838103490
Source of the keplerian elements: AFSPC